sat.trackr.live / text

‹ back to catalog

STARLINK-11537 [DTC]

NORAD 62911 · 2025-027E

PAYLOAD ACTIVE UNKNOWN

§ Identity

Operator
Country
US
Launch date
2025-02-08
Launch site
AFETR
Launch vehicle
Mass (kg)
RCS (m²)

Purposes: comms

External: N2YO · Heavens-Above · Gunter

§ Orbital elements

Epoch: 2026-05-24T16:24:45.980064Z

Period
91.66 min
Inclination
43.0006°
Eccentricity
0.0002581
Mean motion
15.71012315 rev/d
Perigee alt
354.3 km
Apogee alt
357.7 km
Semi-major
6,734.1 km
B*
1.7058e-3
RAAN
249.6305°
Arg perigee
37.8138°
Mean anomaly
322.2911°
Rev number
7,514

§ Raw data

STARLINK-11537 [DTC]1 62911U 25027E   26144.68386551  .00226130  00000+0  17058-2 0  99902 62911  43.0006 249.6305 0002581  37.8138 322.2911 15.71012315 75142

JSON: /api/v1/satellites/62911 · /tle

For live sub-satellite position, see the globe view (requires WebGL).

§ Visibility from observer

Set your observer location to see the next 7 days of passes ≥ 10°. The values pass through the URL so the page stays shareable.

No JS? Fill the form by hand. The geolocation button needs JavaScript.